Location: El Conde
(10.2895°N, 67.2409°W)
Time: 07:36:40
(UTC+00:00)

Centaur D AC-29 - Pass Details

Date: 19 May 2024
Orbit: 611 x 36210 km, 26.4° (Epoch: 21 June)

Event Time Altitude Azimuth Distance (km) Brightness Sun altitude
Rises 23:01:41 0° 250° (WSW) 4,141 6.1 -4.8°
Reaches altitude 10° 23:05:02 10° 255° (WSW) 2,407 5.0 -5.6°
Maximum altitude 23:09:13 58° 335° (NNW) 710 1.7 -6.5°
Drops below altitude 10° 23:13:04 10° 56° (ENE) 2,223 3.6 -7.4°
Sets 23:16:01 0° 61° (ENE) 3,757 4.7 -8.1°
